Regional Weather Roundup
Issued by NWS

Home | Current Version | Previous Version | Graphics & Text | Print | Product List | Glossary On
Versions: 1 2 3 4 5 6 7 8 9 10 11 12 13 14 15 16 17 18 19 20 21 22 23 24 25 26 27 28 29 30 31 32 33 34 35 36 37 38 39 40 41 42 43 44 45 46 47 48 49 50
000
ASUS43 KBIS 200402
RWRND

NORTH DAKOTA REGIONAL WEATHER ROUNDUP
NATIONAL WEATHER SERVICE BISMARCK ND
1100 PM CDT TUE SEP 19 2017

NOTE: "FAIR" INDICATES FEW OR NO CLOUDS BELOW 12,000 FEET WITH NO
SIGNIFICANT WEATHER AND/OR OBSTRUCTIONS TO VISIBILITY.


NDZ001>003-009>011-017-200500-
NORTHWEST NORTH DAKOTA

CITY           SKY/WX    TMP DP  RH WIND       PRES   REMARKS
WILLISTON      CLOUDY    54  42  64 W12       29.57R
MINOT          CLOUDY    56  46  69 W18       29.51R
MINOT AFB      CLOUDY    55  46  71 W12       29.49R
$$

NDZ018>021-031>035-040>046-200500-
SOUTHWEST NORTH DAKOTA

CITY           SKY/WX    TMP DP  RH WIND       PRES   REMARKS
BISMARCK       CLOUDY    56  32  40 NW15G24   29.56S
DICKINSON      PTCLDY    46  43  89 W12       29.61R
GARRISON         N/A     52  45  77 W12       29.53R
HETTINGER ARPT CLOUDY    44  42  93 W13       29.67S
$$

NDZ004>008-012>016-024-026-027-054-200500-
NORTHEAST NORTH DAKOTA

CITY           SKY/WX    TMP DP  RH WIND       PRES   REMARKS
GRAND FORKS    LGT RAIN  66  65  96 E20G28    29.36F
GRND FRKS AFB  LGT RAIN  65  64  99 SW6       29.42F
DEVILS LAKE    CLOUDY    59  56  89 W7        29.49R
$$

NDZ022-023-025-028>030-036>039-047>053-200500-
SOUTHEAST NORTH DAKOTA

CITY           SKY/WX    TMP DP  RH WIND       PRES   REMARKS
FARGO          TSTM      63  62  97 N13       29.46S
JAMESTOWN      CLOUDY    60  55  83 W12       29.52R
$$





USA.gov is the U.S. government's official web portal to all federal, state and local government web resources and services.